TimePDT,TemperatureF,Dew PointF,Humidity,Sea Level PressureIn,VisibilityMPH,Wind Direction,Wind SpeedMPH,Gust SpeedMPH,PrecipitationIn,Events,Conditions,WindDirDegrees,DateUTC
12:56 AM,39.0,24.1,55,29.94,10.0,WSW,9.2,-,N/A,,Clear,250,2013-03-17 07:56:00
1:56 AM,34.0,23.0,64,29.95,10.0,Calm,Calm,-,N/A,,Clear,0,2013-03-17 08:56:00
2:56 AM,42.1,26.1,53,29.94,10.0,Calm,Calm,-,N/A,,Clear,0,2013-03-17 09:56:00
3:56 AM,37.9,23.0,55,29.95,10.0,WSW,6.9,-,N/A,,Clear,240,2013-03-17 10:56:00
4:56 AM,32.0,18.0,56,29.97,10.0,WSW,8.1,-,N/A,,Clear,240,2013-03-17 11:56:00
5:56 AM,32.0,18.0,56,29.97,10.0,WSW,9.2,-,N/A,,Clear,240,2013-03-17 12:56:00
6:56 AM,30.0,19.9,66,29.99,10.0,WSW,9.2,-,N/A,,Clear,250,2013-03-17 13:56:00
7:56 AM,39.9,21.9,49,30.00,10.0,West,16.1,20.7,N/A,,Clear,260,2013-03-17 14:56:00
8:56 AM,45.0,19.9,37,30.02,10.0,West,15.0,20.7,N/A,,Clear,280,2013-03-17 15:56:00
9:56 AM,46.0,16.0,30,30.05,10.0,West,13.8,23.0,N/A,,Clear,270,2013-03-17 16:56:00
10:56 AM,48.0,12.0,24,30.05,10.0,West,17.3,20.7,N/A,,Clear,260,2013-03-17 17:56:00
11:56 AM,50.0,10.9,21,30.05,10.0,West,12.7,23.0,N/A,,Clear,270,2013-03-17 18:56:00
12:56 PM,51.1,8.1,18,30.04,10.0,WSW,11.5,19.6,N/A,,Clear,240,2013-03-17 19:56:00
1:56 PM,52.0,7.0,16,30.03,10.0,West,12.7,24.2,N/A,,Clear,270,2013-03-17 20:56:00
2:56 PM,53.1,8.1,16,29.99,10.0,West,13.8,23.0,N/A,,Clear,260,2013-03-17 21:56:00
3:56 PM,54.0,9.0,17,29.99,10.0,WSW,13.8,24.2,N/A,,Clear,250,2013-03-17 22:56:00
4:56 PM,54.0,8.1,16,30.00,10.0,West,15.0,-,N/A,,Clear,280,2013-03-17 23:56:00
5:56 PM,53.1,8.1,16,29.99,10.0,WNW,15.0,20.7,N/A,,Clear,290,2013-03-18 00:56:00
6:56 PM,48.9,10.0,21,30.01,10.0,WNW,10.4,-,N/A,,Clear,290,2013-03-18 01:56:00
7:56 PM,39.0,10.0,30,30.02,10.0,WSW,5.8,-,N/A,,Clear,240,2013-03-18 02:56:00
8:56 PM,36.0,10.0,34,30.04,10.0,WNW,4.6,-,N/A,,Clear,290,2013-03-18 03:56:00
9:56 PM,32.0,10.0,40,30.06,10.0,West,4.6,-,N/A,,Clear,260,2013-03-18 04:56:00
10:56 PM,36.0,12.9,39,30.05,10.0,North,4.6,-,N/A,,Clear,10,2013-03-18 05:56:00
11:56 PM,33.1,12.0,42,30.06,10.0,Variable,3.5,-,N/A,,Clear,0,2013-03-18 06:56:00